This is the latest recevied weather packets stored in our database for station/object N7TUG-8. If no packets are shown the sender has not sent any weather packets the latest 1 day(s).
| Time | Temp. | Humidity | Pressure | Rain* | Wind** | Luminosity | Snow |
|---|---|---|---|---|---|---|---|
| 1778038006 | 18.33° C | 74% | 1014.3 hPa | 0 mm | 0.89 m/s, 179° | - | - |
| 1778037717 | 17.78° C | 74% | 1014.3 hPa | 0 mm | 1.34 m/s, 154° | - | - |
| 1778037070 | 18.33° C | 73% | 1014.3 hPa | 0 mm | 1.34 m/s, 136° | - | - |
| 1778036922 | 18.33° C | 73% | 1014.3 hPa | 0 mm | 1.34 m/s, 132° | - | - |
| 1778036146 | 18.33° C | 73% | 1014.3 hPa | 0 mm | 1.79 m/s, 123° | - | - |
| 1778036091 | 18.33° C | 73% | 1014.3 hPa | 0 mm | 2.24 m/s, 125° | - | - |
| 1778035310 | 18.33° C | 73% | 1014.2 hPa | 0 mm | 1.79 m/s, 140° | - | - |
| 1778034585 | 18.33° C | 72% | 1014.3 hPa | 0 mm | 1.79 m/s, 136° | - | - |
| 1778034538 | 18.33° C | 72% | 1014.3 hPa | 0 mm | 1.79 m/s, 136° | - | - |
| 1778033731 | 18.33° C | 72% | 1014.3 hPa | 0 mm | 1.79 m/s, 141° | - | - |
| 1778033671 | 18.33° C | 72% | 1014.2 hPa | 0 mm | 2.68 m/s, 150° | - | - |
| 1778032876 | 18.33° C | 73% | 1014.2 hPa | 0 mm | 2.68 m/s, 149° | - | - |
| 1778032157 | 18.33° C | 72% | 1014.4 hPa | 0 mm | 2.24 m/s, 131° | - | - |
| 1778032101 | 18.33° C | 72% | 1014.4 hPa | 0 mm | 2.24 m/s, 131° | - | - |
| 1778031291 | 18.33° C | 71% | 1014.3 hPa | 0 mm | 2.68 m/s, 124° | - | - |
| 1778031161 | 18.33° C | 71% | 1014.3 hPa | 0 mm | 2.68 m/s, 124° | - | - |
| 1778030381 | 18.89° C | 71% | 1014.5 hPa | 0 mm | 1.79 m/s, 151° | - | - |
| 1778029456 | 18.33° C | 73% | 1014.4 hPa | 0 mm | 1.79 m/s, 132° | - | - |
| 1778028596 | 18.33° C | 73% | 1014.4 hPa | 0 mm | 2.68 m/s, 126° | - | - |
| 1778027650 | 17.78° C | 74% | 1014.6 hPa | 0 mm | 3.13 m/s, 123° | - | - |
| 1778027231 | 17.78° C | 74% | 1014.6 hPa | 0 mm | 2.68 m/s, 133° | - | - |
| 1778026781 | 17.78° C | 74% | 1014.7 hPa | 0 mm | 2.68 m/s, 122° | - | - |
| 1778026351 | 17.78° C | 74% | 1014.7 hPa | 0 mm | 2.68 m/s, 123° | - | - |
| 1778026001 | 17.78° C | 74% | 1014.8 hPa | 0 mm | 2.24 m/s, 137° | - | - |
| 1778025627 | 17.22° C | 75% | 1014.8 hPa | 0 mm | 3.13 m/s, 118° | - | - |
* Rain latest hour (hover to see other rain measurements)
** Current wind speed in m/s (hover to see current wind gust speed)